Location: Laan Hart van Zuid
(52.2563°N, 6.7904°E)
Time: 11:45:58
(UTC+02:00)

ISS - Pass Details

Date: 21 May 2024
Orbit: 411 x 419 km, 51.6° (Epoch: 29 May)

Event Time Altitude Azimuth Distance (km) Brightness Sun altitude
Rises 00:52:13 0° 279° (W) 2,369 0.3 -17.1°
Reaches altitude 10° 00:55:01 10° 254° (WSW) 1,498 -1.0 -17.1°
Enters shadow 00:55:31 12° 246° (WSW) 1,392 -1.3 -17.1°
